Wetterdaten: Sonntag, 13.03.2016
Datum Zeit Temperatur Luftfeuchte Luftdruck Regen Wind Richtung Richtung Sonnenschein ET UV Solar Taupunkt Windchill Windben
13.03.2016 00:00 1,8 C 79 % 1031,1 hPa 0,0 l/m 0,9 km/h (0 Bft) O-NO 63 0 min 0,000 mm 0,0 UV-I 0 W/m -1,4 C 1,8 C 16,1 km/h (3 Bft)
13.03.2016 00:05 1,8 C 78 % 1031,1 hPa 0,0 l/m 3,2 km/h (1 Bft) O-NO 59 0 min 0,000 mm 0,0 UV-I 0 W/m -1,6 C 1,8 C 12,9 km/h (3 Bft)
13.03.2016 00:10 1,8 C 78 % 1031,1 hPa 0,0 l/m 4,5 km/h (1 Bft) NO 49 0 min 0,000 mm 0,0 UV-I 0 W/m -1,6 C 1,8 C 12,9 km/h (3 Bft)
13.03.2016 00:15 1,8 C 79 % 1031,1 hPa 0,0 l/m 0,6 km/h (0 Bft) N 5 0 min 0,000 mm 0,0 UV-I 0 W/m -1,4 C 1,8 C 11,3 km/h (2 Bft)
13.03.2016 00:20 1,8 C 79 % 1031,1 hPa 0,0 l/m 0,5 km/h (0 Bft) NO 35 0 min 0,000 mm 0,0 UV-I 0 W/m -1,4 C 1,8 C 6,4 km/h (2 Bft)
13.03.2016 00:25 1,8 C 79 % 1031,2 hPa 0,0 l/m 0,2 km/h (0 Bft) NO 39 0 min 0,000 mm 0,0 UV-I 0 W/m -1,4 C 1,8 C 6,4 km/h (2 Bft)
13.03.2016 00:30 1,7 C 78 % 1031,2 hPa 0,0 l/m 2,2 km/h (1 Bft) N-NO 24 0 min 0,000 mm 0,0 UV-I 0 W/m -1,7 C 1,7 C 16,1 km/h (3 Bft)
13.03.2016 00:35 1,7 C 79 % 1031,2 hPa 0,0 l/m 2,8 km/h (1 Bft) NO 44 0 min 0,000 mm 0,0 UV-I 0 W/m -1,5 C 1,7 C 12,9 km/h (3 Bft)
13.03.2016 00:40 1,7 C 79 % 1031,2 hPa 0,0 l/m 3,7 km/h (1 Bft) O-NO 73 0 min 0,000 mm 0,0 UV-I 0 W/m -1,5 C 1,7 C 14,5 km/h (3 Bft)
13.03.2016 00:45 1,7 C 79 % 1031,2 hPa 0,0 l/m 0,5 km/h (0 Bft) O-NO 65 0 min 0,000 mm 0,0 UV-I 0 W/m -1,5 C 1,7 C 6,4 km/h (2 Bft)
13.03.2016 00:50 1,6 C 79 % 1031,2 hPa 0,0 l/m 4,5 km/h (1 Bft) N-NO 24 0 min 0,000 mm 0,0 UV-I 0 W/m -1,6 C 1,6 C 17,7 km/h (3 Bft)
13.03.2016 00:55 1,6 C 79 % 1031,2 hPa 0,0 l/m 2,5 km/h (1 Bft) NO 41 0 min 0,000 mm 0,0 UV-I 0 W/m -1,6 C 1,6 C 11,3 km/h (2 Bft)
13.03.2016 01:00 1,6 C 79 % 1031,3 hPa 0,0 l/m 2,4 km/h (1 Bft) O-NO 71 0 min 0,000 mm 0,0 UV-I 0 W/m -1,6 C 1,6 C 14,5 km/h (3 Bft)
13.03.2016 01:05 1,6 C 79 % 1031,4 hPa 0,0 l/m 8,0 km/h (2 Bft) NO 48 0 min 0,025 mm 0,0 UV-I 0 W/m -1,6 C 0,0 C 17,7 km/h (3 Bft)
13.03.2016 01:10 1,6 C 79 % 1031,4 hPa 0,0 l/m 6,1 km/h (2 Bft) NO 50 0 min 0,000 mm 0,0 UV-I 0 W/m -1,6 C 1,6 C 14,5 km/h (3 Bft)
13.03.2016 01:15 1,5 C 79 % 1031,4 hPa 0,0 l/m 5,6 km/h (1 Bft) O-NO 64 0 min 0,000 mm 0,0 UV-I 0 W/m -1,7 C 1,5 C 20,9 km/h (4 Bft)
13.03.2016 01:20 1,5 C 79 % 1031,4 hPa 0,0 l/m 5,2 km/h (1 Bft) NO 53 0 min 0,000 mm 0,0 UV-I 0 W/m -1,7 C 1,5 C 17,7 km/h (3 Bft)
13.03.2016 01:25 1,4 C 80 % 1031,4 hPa 0,0 l/m 2,7 km/h (1 Bft) NO 38 0 min 0,000 mm 0,0 UV-I 0 W/m -1,7 C 1,4 C 16,1 km/h (3 Bft)
13.03.2016 01:30 1,4 C 80 % 1031,4 hPa 0,0 l/m 4,6 km/h (1 Bft) O-NO 65 0 min 0,000 mm 0,0 UV-I 0 W/m -1,7 C 1,4 C 16,1 km/h (3 Bft)
13.03.2016 01:35 1,4 C 80 % 1031,4 hPa 0,0 l/m 5,1 km/h (1 Bft) N-NW 346 0 min 0,000 mm 0,0 UV-I 0 W/m -1,7 C 1,4 C 16,1 km/h (3 Bft)
13.03.2016 01:40 1,3 C 80 % 1031,4 hPa 0,0 l/m 6,1 km/h (2 Bft) O-NO 60 0 min 0,000 mm 0,0 UV-I 0 W/m -1,8 C 1,3 C 14,5 km/h (3 Bft)
13.03.2016 01:45 1,3 C 81 % 1031,5 hPa 0,0 l/m 5,8 km/h (2 Bft) N-NO 28 0 min 0,000 mm 0,0 UV-I 0 W/m -1,6 C 1,3 C 17,7 km/h (3 Bft)
13.03.2016 01:50 1,3 C 81 % 1031,5 hPa 0,0 l/m 4,9 km/h (1 Bft) O-NO 57 0 min 0,000 mm 0,0 UV-I 0 W/m -1,6 C 1,3 C 14,5 km/h (3 Bft)
13.03.2016 01:55 1,2 C 81 % 1031,5 hPa 0,0 l/m 1,4 km/h (1 Bft) NO 55 0 min 0,000 mm 0,0 UV-I 0 W/m -1,7 C 1,2 C 11,3 km/h (2 Bft)
13.03.2016 02:00 1,2 C 82 % 1031,5 hPa 0,0 l/m 1,9 km/h (1 Bft) NO 53 0 min 0,000 mm 0,0 UV-I 0 W/m -1,5 C 1,2 C 12,9 km/h (3 Bft)
13.03.2016 02:05 1,2 C 82 % 1031,5 hPa 0,0 l/m 2,1 km/h (1 Bft) O-NO 73 0 min 0,026 mm 0,0 UV-I 0 W/m -1,5 C 1,2 C 12,9 km/h (3 Bft)
13.03.2016 02:10 1,2 C 82 % 1031,5 hPa 0,0 l/m 3,3 km/h (1 Bft) O-NO 57 0 min 0,000 mm 0,0 UV-I 0 W/m -1,5 C 1,2 C 11,3 km/h (2 Bft)
13.03.2016 02:15 1,2 C 82 % 1031,6 hPa 0,0 l/m 0,2 km/h (0 Bft) NO 46 0 min 0,000 mm 0,0 UV-I 0 W/m -1,5 C 1,2 C 3,2 km/h (1 Bft)
13.03.2016 02:20 1,2 C 82 % 1031,5 hPa 0,0 l/m 1,2 km/h (1 Bft) NO 42 0 min 0,000 mm 0,0 UV-I 0 W/m -1,5 C 1,2 C 12,9 km/h (3 Bft)
13.03.2016 02:25 1,2 C 82 % 1031,5 hPa 0,0 l/m 4,3 km/h (1 Bft) O-NO 71 0 min 0,000 mm 0,0 UV-I 0 W/m -1,5 C 1,2 C 16,1 km/h (3 Bft)
13.03.2016 02:30 1,2 C 82 % 1031,6 hPa 0,0 l/m 5,0 km/h (1 Bft) N-NO 24 0 min 0,000 mm 0,0 UV-I 0 W/m -1,5 C 1,2 C 12,9 km/h (3 Bft)
13.03.2016 02:35 1,3 C 82 % 1031,5 hPa 0,0 l/m 4,6 km/h (1 Bft) NO 40 0 min 0,000 mm 0,0 UV-I 0 W/m -1,4 C 1,3 C 16,1 km/h (3 Bft)
13.03.2016 02:40 1,3 C 82 % 1031,5 hPa 0,0 l/m 1,3 km/h (1 Bft) NO 49 0 min 0,000 mm 0,0 UV-I 0 W/m -1,4 C 1,3 C 8,0 km/h (2 Bft)
13.03.2016 02:45 1,3 C 82 % 1031,4 hPa 0,0 l/m 5,1 km/h (1 Bft) NO 34 0 min 0,000 mm 0,0 UV-I 0 W/m -1,4 C 1,3 C 14,5 km/h (3 Bft)
13.03.2016 02:50 1,3 C 82 % 1031,4 hPa 0,0 l/m 2,4 km/h (1 Bft) NO 37 0 min 0,000 mm 0,0 UV-I 0 W/m -1,4 C 1,3 C 11,3 km/h (2 Bft)
13.03.2016 02:55 1,3 C 82 % 1031,5 hPa 0,0 l/m 1,8 km/h (1 Bft) N-NO 19 0 min 0,000 mm 0,0 UV-I 0 W/m -1,4 C 1,3 C 9,7 km/h (2 Bft)
13.03.2016 03:00 1,3 C 83 % 1031,5 hPa 0,0 l/m 1,2 km/h (1 Bft) O-NO 57 0 min 0,000 mm 0,0 UV-I 0 W/m -1,3 C 1,3 C 8,0 km/h (2 Bft)
13.03.2016 03:05 1,3 C 83 % 1031,5 hPa 0,0 l/m 3,5 km/h (1 Bft) N 10 0 min 0,000 mm 0,0 UV-I 0 W/m -1,3 C 1,3 C 12,9 km/h (3 Bft)
13.03.2016 03:10 1,3 C 83 % 1031,5 hPa 0,0 l/m 2,1 km/h (1 Bft) O-NO 60 0 min 0,000 mm 0,0 UV-I 0 W/m -1,3 C 1,3 C 8,0 km/h (2 Bft)
13.03.2016 03:15 1,3 C 83 % 1031,5 hPa 0,0 l/m 1,5 km/h (1 Bft) NO 52 0 min 0,000 mm 0,0 UV-I 0 W/m -1,3 C 1,3 C 6,4 km/h (2 Bft)
13.03.2016 03:20 1,3 C 83 % 1031,5 hPa 0,0 l/m 4,3 km/h (1 Bft) O 83 0 min 0,000 mm 0,0 UV-I 0 W/m -1,3 C 1,3 C 12,9 km/h (3 Bft)
13.03.2016 03:25 1,3 C 83 % 1031,4 hPa 0,0 l/m 1,0 km/h (0 Bft) O-NO 77 0 min 0,000 mm 0,0 UV-I 0 W/m -1,3 C 1,3 C 9,7 km/h (2 Bft)
13.03.2016 03:30 1,4 C 83 % 1031,4 hPa 0,0 l/m 3,2 km/h (1 Bft) O-NO 67 0 min 0,000 mm 0,0 UV-I 0 W/m -1,2 C 1,4 C 12,9 km/h (3 Bft)
13.03.2016 03:35 1,4 C 83 % 1031,5 hPa 0,0 l/m 4,3 km/h (1 Bft) N-NO 26 0 min 0,000 mm 0,0 UV-I 0 W/m -1,2 C 1,4 C 16,1 km/h (3 Bft)
13.03.2016 03:40 1,4 C 83 % 1031,4 hPa 0,0 l/m 3,7 km/h (1 Bft) N-NO 30 0 min 0,000 mm 0,0 UV-I 0 W/m -1,2 C 1,4 C 11,3 km/h (2 Bft)
13.03.2016 03:45 1,4 C 83 % 1031,4 hPa 0,0 l/m 4,7 km/h (1 Bft) O-NO 61 0 min 0,000 mm 0,0 UV-I 0 W/m -1,2 C 1,4 C 17,7 km/h (3 Bft)
13.03.2016 03:50 1,4 C 83 % 1031,4 hPa 0,0 l/m 6,0 km/h (2 Bft) NO 40 0 min 0,000 mm 0,0 UV-I 0 W/m -1,2 C 1,4 C 12,9 km/h (3 Bft)
13.03.2016 03:55 1,4 C 83 % 1031,4 hPa 0,0 l/m 5,7 km/h (1 Bft) NO 53 0 min 0,000 mm 0,0 UV-I 0 W/m -1,2 C 1,4 C 17,7 km/h (3 Bft)
13.03.2016 04:00 1,4 C 83 % 1031,4 hPa 0,0 l/m 4,6 km/h (1 Bft) O-NO 63 0 min 0,000 mm 0,0 UV-I 0 W/m -1,2 C 1,4 C 12,9 km/h (3 Bft)
13.03.2016 04:05 1,4 C 83 % 1031,5 hPa 0,0 l/m 2,5 km/h (1 Bft) NO 52 0 min 0,000 mm 0,0 UV-I 0 W/m -1,2 C 1,4 C 16,1 km/h (3 Bft)
13.03.2016 04:10 1,4 C 83 % 1031,4 hPa 0,0 l/m 3,3 km/h (1 Bft) O-NO 69 0 min 0,000 mm 0,0 UV-I 0 W/m -1,2 C 1,4 C 12,9 km/h (3 Bft)
13.03.2016 04:15 1,3 C 83 % 1031,5 hPa 0,0 l/m 3,4 km/h (1 Bft) O-NO 74 0 min 0,000 mm 0,0 UV-I 0 W/m -1,3 C 1,3 C 17,7 km/h (3 Bft)
13.03.2016 04:20 1,3 C 83 % 1031,4 hPa 0,0 l/m 2,2 km/h (1 Bft) O-NO 63 0 min 0,000 mm 0,0 UV-I 0 W/m -1,3 C 1,3 C 11,3 km/h (2 Bft)
13.03.2016 04:25 1,3 C 83 % 1031,5 hPa 0,0 l/m 2,8 km/h (1 Bft) N-NO 30 0 min 0,000 mm 0,0 UV-I 0 W/m -1,3 C 1,3 C 14,5 km/h (3 Bft)
13.03.2016 04:30 1,3 C 83 % 1031,5 hPa 0,0 l/m 3,9 km/h (1 Bft) N-NO 24 0 min 0,000 mm 0,0 UV-I 0 W/m -1,3 C 1,3 C 12,9 km/h (3 Bft)
13.03.2016 04:34 1,2 C 83 % 1031,5 hPa 0,0 l/m 2,3 km/h (1 Bft) N-NO 31 0 min 0,000 mm 0,0 UV-I 0 W/m -1,4 C 1,2 C 12,9 km/h (3 Bft)
13.03.2016 04:35 1,2 C 83 % 1031,5 hPa 0,0 l/m 0,0 km/h (0 Bft) N-NO 31 0 min 0,000 mm 0,0 UV-I 0 W/m -1,4 C 1,2 C 0,0 km/h (0 Bft)
13.03.2016 04:40 1,3 C 83 % 1031,5 hPa 0,0 l/m 5,7 km/h (1 Bft) NO 42 0 min 0,000 mm 0,0 UV-I 0 W/m -1,3 C 1,3 C 14,5 km/h (3 Bft)
13.03.2016 04:45 1,3 C 84 % 1031,5 hPa 0,0 l/m 6,7 km/h (2 Bft) NO 44 0 min 0,000 mm 0,0 UV-I 0 W/m -1,1 C 1,0 C 16,1 km/h (3 Bft)
13.03.2016 04:50 1,3 C 83 % 1031,6 hPa 0,0 l/m 5,7 km/h (1 Bft) N-NW 338 0 min 0,000 mm 0,0 UV-I 0 W/m -1,3 C 1,3 C 14,5 km/h (3 Bft)
13.03.2016 04:55 1,4 C 83 % 1031,6 hPa 0,0 l/m 4,3 km/h (1 Bft) O 98 0 min 0,000 mm 0,0 UV-I 0 W/m -1,2 C 1,4 C 14,5 km/h (3 Bft)
13.03.2016 05:00 1,4 C 83 % 1031,7 hPa 0,0 l/m 9,2 km/h (2 Bft) O-NO 69 0 min 0,000 mm 0,0 UV-I 0 W/m -1,2 C -1,2 C 16,1 km/h (3 Bft)
13.03.2016 05:05 1,5 C 83 % 1031,7 hPa 0,0 l/m 5,8 km/h (2 Bft) NO 37 0 min 0,000 mm 0,0 UV-I 0 W/m -1,1 C 1,5 C 17,7 km/h (3 Bft)
13.03.2016 05:10 1,5 C 83 % 1031,7 hPa 0,0 l/m 4,5 km/h (1 Bft) NO 41 0 min 0,000 mm 0,0 UV-I 0 W/m -1,1 C 1,5 C 14,5 km/h (3 Bft)
13.03.2016 05:15 1,5 C 83 % 1031,7 hPa 0,0 l/m 4,8 km/h (1 Bft) NO 44 0 min 0,000 mm 0,0 UV-I 0 W/m -1,1 C 1,5 C 16,1 km/h (3 Bft)
13.03.2016 05:20 1,5 C 83 % 1031,8 hPa 0,0 l/m 6,9 km/h (2 Bft) O-NO 67 0 min 0,000 mm 0,0 UV-I 0 W/m -1,1 C 1,0 C 19,3 km/h (3 Bft)
13.03.2016 05:25 1,5 C 83 % 1031,8 hPa 0,0 l/m 6,4 km/h (2 Bft) O-NO 58 0 min 0,000 mm 0,0 UV-I 0 W/m -1,1 C 1,5 C 22,5 km/h (4 Bft)
13.03.2016 05:30 1,6 C 83 % 1031,9 hPa 0,0 l/m 7,8 km/h (2 Bft) O-NO 63 0 min 0,000 mm 0,0 UV-I 0 W/m -1,0 C 0,2 C 20,9 km/h (4 Bft)
13.03.2016 05:35 1,6 C 82 % 1031,9 hPa 0,0 l/m 9,1 km/h (2 Bft) O-NO 64 0 min 0,000 mm 0,0 UV-I 0 W/m -1,1 C -0,9 C 24,1 km/h (4 Bft)
13.03.2016 05:40 1,6 C 82 % 1032,0 hPa 0,0 l/m 8,2 km/h (2 Bft) O-NO 57 0 min 0,000 mm 0,0 UV-I 0 W/m -1,1 C -0,2 C 16,1 km/h (3 Bft)
13.03.2016 05:45 1,6 C 82 % 1032,0 hPa 0,0 l/m 7,3 km/h (2 Bft) NW 304 0 min 0,000 mm 0,0 UV-I 0 W/m -1,1 C 0,7 C 20,9 km/h (4 Bft)
13.03.2016 05:50 1,6 C 82 % 1032,0 hPa 0,0 l/m 8,4 km/h (2 Bft) O-NO 65 0 min 0,000 mm 0,0 UV-I 0 W/m -1,1 C -0,3 C 25,7 km/h (4 Bft)
13.03.2016 05:55 1,6 C 82 % 1032,0 hPa 0,0 l/m 6,7 km/h (2 Bft) NO 53 0 min 0,000 mm 0,0 UV-I 0 W/m -1,1 C 1,3 C 16,1 km/h (3 Bft)
13.03.2016 06:00 1,7 C 82 % 1032,0 hPa 0,0 l/m 6,1 km/h (2 Bft) O-NO 74 0 min 0,025 mm 0,0 UV-I 0 W/m -1,0 C 1,7 C 16,1 km/h (3 Bft)
13.03.2016 06:05 1,7 C 82 % 1032,0 hPa 0,0 l/m 6,9 km/h (2 Bft) NO 56 0 min 0,000 mm 0,0 UV-I 0 W/m -1,0 C 1,2 C 17,7 km/h (3 Bft)
13.03.2016 06:10 1,7 C 82 % 1032,0 hPa 0,0 l/m 7,3 km/h (2 Bft) O-NO 73 0 min 0,000 mm 0,0 UV-I 0 W/m -1,0 C 0,8 C 16,1 km/h (3 Bft)
13.03.2016 06:15 1,7 C 83 % 1032,0 hPa 0,0 l/m 5,7 km/h (1 Bft) O 97 0 min 0,000 mm 0,0 UV-I 0 W/m -0,9 C 1,7 C 19,3 km/h (3 Bft)
13.03.2016 06:20 1,8 C 82 % 1032,1 hPa 0,0 l/m 10,5 km/h (2 Bft) NO 37 0 min 0,000 mm 0,0 UV-I 0 W/m -0,9 C -1,8 C 22,5 km/h (4 Bft)
13.03.2016 06:25 1,8 C 82 % 1032,2 hPa 0,0 l/m 7,1 km/h (2 Bft) O-NO 58 0 min 0,000 mm 0,0 UV-I 0 W/m -0,9 C 1,1 C 19,3 km/h (3 Bft)
13.03.2016 06:30 1,8 C 82 % 1032,2 hPa 0,0 l/m 9,9 km/h (2 Bft) O-NO 61 0 min 0,000 mm 0,0 UV-I 0 W/m -0,9 C -1,4 C 17,7 km/h (3 Bft)
13.03.2016 06:35 1,8 C 82 % 1032,2 hPa 0,0 l/m 10,6 km/h (2 Bft) NO 53 0 min 0,000 mm 0,0 UV-I 0 W/m -0,9 C -1,9 C 19,3 km/h (3 Bft)
13.03.2016 06:40 1,8 C 83 % 1032,2 hPa 0,0 l/m 4,5 km/h (1 Bft) N-NO 28 0 min 0,000 mm 0,0 UV-I 0 W/m -0,8 C 1,8 C 14,5 km/h (3 Bft)
13.03.2016 06:45 1,8 C 83 % 1032,3 hPa 0,0 l/m 9,0 km/h (2 Bft) NO 51 0 min 0,000 mm 0,0 UV-I 0 W/m -0,8 C -0,6 C 17,7 km/h (3 Bft)
13.03.2016 06:50 1,9 C 82 % 1032,4 hPa 0,0 l/m 11,3 km/h (2 Bft) O-NO 61 0 min 0,000 mm 0,0 UV-I 0 W/m -0,8 C -2,3 C 24,1 km/h (4 Bft)
13.03.2016 06:55 1,9 C 83 % 1032,4 hPa 0,0 l/m 7,1 km/h (2 Bft) NO 55 0 min 0,000 mm 0,0 UV-I 0 W/m -0,7 C 1,2 C 16,1 km/h (3 Bft)
13.03.2016 07:00 1,9 C 83 % 1032,4 hPa 0,0 l/m 10,2 km/h (2 Bft) O-NO 71 0 min 0,026 mm 0,0 UV-I 0 W/m -0,7 C -1,5 C 22,5 km/h (4 Bft)
13.03.2016 07:05 2,0 C 83 % 1032,5 hPa 0,0 l/m 7,7 km/h (2 Bft) O-NO 57 0 min 0,000 mm 0,0 UV-I 4 W/m -0,6 C 0,7 C 17,7 km/h (3 Bft)
13.03.2016 07:10 2,0 C 83 % 1032,5 hPa 0,0 l/m 7,3 km/h (2 Bft) O-NO 58 0 min 0,000 mm 0,0 UV-I 6 W/m -0,6 C 1,1 C 19,3 km/h (3 Bft)
13.03.2016 07:15 2,1 C 83 % 1032,6 hPa 0,0 l/m 11,6 km/h (2 Bft) NO 53 0 min 0,000 mm 0,0 UV-I 9 W/m -0,5 C -2,3 C 24,1 km/h (4 Bft)
13.03.2016 07:20 2,1 C 83 % 1032,6 hPa 0,0 l/m 11,2 km/h (2 Bft) NO 38 0 min 0,000 mm 0,0 UV-I 12 W/m -0,5 C -2,0 C 25,7 km/h (4 Bft)
13.03.2016 07:25 2,2 C 83 % 1032,6 hPa 0,0 l/m 8,9 km/h (2 Bft) NO 47 0 min 0,000 mm 0,0 UV-I 13 W/m -0,4 C -0,1 C 19,3 km/h (3 Bft)
13.03.2016 07:30 2,2 C 83 % 1032,7 hPa 0,0 l/m 9,3 km/h (2 Bft) NO 46 0 min 0,000 mm 0,0 UV-I 16 W/m -0,4 C -0,5 C 22,5 km/h (4 Bft)
13.03.2016 07:35 2,2 C 83 % 1032,6 hPa 0,0 l/m 10,7 km/h (2 Bft) O-NO 71 0 min 0,000 mm 0,0 UV-I 19 W/m -0,4 C -1,6 C 27,4 km/h (4 Bft)
13.03.2016 07:40 2,3 C 83 % 1032,7 hPa 0,0 l/m 8,9 km/h (2 Bft) N-NO 29 0 min 0,000 mm 0,0 UV-I 23 W/m -0,3 C -0,0 C 19,3 km/h (3 Bft)
13.03.2016 07:45 2,3 C 83 % 1032,6 hPa 0,0 l/m 4,3 km/h (1 Bft) O-NO 78 0 min 0,000 mm 0,0 UV-I 30 W/m -0,3 C 2,3 C 12,9 km/h (3 Bft)
13.03.2016 07:50 2,3 C 83 % 1032,8 hPa 0,0 l/m 8,6 km/h (2 Bft) NO 43 0 min 0,000 mm 0,0 UV-I 31 W/m -0,3 C 0,2 C 16,1 km/h (3 Bft)
13.03.2016 07:55 2,3 C 83 % 1032,8 hPa 0,0 l/m 7,1 km/h (2 Bft) NO 50 0 min 0,000 mm 0,0 UV-I 33 W/m -0,3 C 1,6 C 19,3 km/h (3 Bft)
13.03.2016 08:00 2,3 C 83 % 1033,0 hPa 0,0 l/m 9,5 km/h (2 Bft) O 84 0 min 0,025 mm 0,0 UV-I 35 W/m -0,3 C -0,5 C 19,3 km/h (3 Bft)
13.03.2016 08:05 2,4 C 83 % 1033,1 hPa 0,0 l/m 6,8 km/h (2 Bft) O-NO 62 0 min 0,000 mm 0,0 UV-I 37 W/m -0,2 C 2,0 C 17,7 km/h (3 Bft)
13.03.2016 08:10 2,4 C 83 % 1033,2 hPa 0,0 l/m 3,7 km/h (1 Bft) N-NW 342 0 min 0,000 mm 0,0 UV-I 35 W/m -0,2 C 2,4 C 16,1 km/h (3 Bft)
13.03.2016 08:15 2,4 C 83 % 1033,2 hPa 0,0 l/m 1,2 km/h (1 Bft) O-NO 62 0 min 0,000 mm 0,0 UV-I 36 W/m -0,2 C 2,4 C 11,3 km/h (2 Bft)
13.03.2016 08:20 2,5 C 83 % 1033,3 hPa 0,0 l/m 4,2 km/h (1 Bft) NO 52 0 min 0,000 mm 0,0 UV-I 39 W/m -0,1 C 2,5 C 16,1 km/h (3 Bft)
13.03.2016 08:25 2,6 C 83 % 1033,3 hPa 0,0 l/m 4,4 km/h (1 Bft) NO 40 0 min 0,000 mm 0,0 UV-I 38 W/m 0,0 C 2,6 C 12,9 km/h (3 Bft)
13.03.2016 08:30 2,6 C 83 % 1033,3 hPa 0,0 l/m 1,8 km/h (1 Bft) O 80 0 min 0,000 mm 0,0 UV-I 40 W/m 0,0 C 2,6 C 11,3 km/h (2 Bft)
13.03.2016 08:35 2,6 C 83 % 1033,4 hPa 0,0 l/m 4,6 km/h (1 Bft) NO 39 0 min 0,000 mm 0,0 UV-I 44 W/m 0,0 C 2,6 C 16,1 km/h (3 Bft)
13.03.2016 08:40 2,7 C 82 % 1033,4 hPa 0,0 l/m 6,1 km/h (2 Bft) NO 47 0 min 0,000 mm 0,0 UV-I 54 W/m -0,1 C 2,7 C 17,7 km/h (3 Bft)
13.03.2016 08:45 2,7 C 83 % 1033,5 hPa 0,0 l/m 2,0 km/h (1 Bft) O-NO 59 0 min 0,000 mm 0,0 UV-I 56 W/m 0,1 C 2,7 C 12,9 km/h (3 Bft)
13.03.2016 08:50 2,8 C 82 % 1033,5 hPa 0,0 l/m 2,8 km/h (1 Bft) NO 51 0 min 0,000 mm 0,1 UV-I 65 W/m 0,0 C 2,8 C 9,7 km/h (2 Bft)
13.03.2016 08:55 2,9 C 83 % 1033,6 hPa 0,0 l/m 3,5 km/h (1 Bft) O-NO 59 0 min 0,000 mm 0,5 UV-I 70 W/m 0,3 C 2,9 C 12,9 km/h (3 Bft)
13.03.2016 09:00 3,0 C 82 % 1033,6 hPa 0,0 l/m 5,2 km/h (1 Bft) N 360 0 min 0,025 mm 0,5 UV-I 77 W/m 0,2 C 3,0 C 17,7 km/h (3 Bft)
13.03.2016 09:05 3,1 C 82 % 1033,6 hPa 0,0 l/m 3,3 km/h (1 Bft) O-NO 67 0 min 0,000 mm 0,5 UV-I 81 W/m 0,3 C 3,1 C 14,5 km/h (3 Bft)
13.03.2016 09:10 3,2 C 82 % 1033,7 hPa 0,0 l/m 1,1 km/h (1 Bft) O 81 0 min 0,000 mm 0,5 UV-I 81 W/m 0,4 C 3,2 C 16,1 km/h (3 Bft)
13.03.2016 09:15 3,2 C 82 % 1033,8 hPa 0,0 l/m 1,6 km/h (1 Bft) N-NO 28 0 min 0,000 mm 0,6 UV-I 88 W/m 0,4 C 3,2 C 11,3 km/h (2 Bft)
13.03.2016 09:20 3,3 C 82 % 1033,9 hPa 0,0 l/m 0,1 km/h (0 Bft) O-NO 60 0 min 0,000 mm 0,6 UV-I 92 W/m 0,5 C 3,3 C 6,4 km/h (2 Bft)
13.03.2016 09:25 3,4 C 81 % 1033,9 hPa 0,0 l/m 4,3 km/h (1 Bft) N-NO 32 0 min 0,000 mm 0,8 UV-I 125 W/m 0,5 C 3,4 C 19,3 km/h (3 Bft)
13.03.2016 09:30 3,5 C 81 % 1033,9 hPa 0,0 l/m 5,6 km/h (1 Bft) O-NO 69 0 min 0,000 mm 0,9 UV-I 148 W/m 0,6 C 3,5 C 19,3 km/h (3 Bft)
13.03.2016 09:35 3,6 C 82 % 1034,0 hPa 0,0 l/m 5,9 km/h (2 Bft) O-NO 57 0 min 0,000 mm 0,7 UV-I 109 W/m 0,8 C 3,6 C 19,3 km/h (3 Bft)
13.03.2016 09:40 3,6 C 81 % 1034,0 hPa 0,0 l/m 7,3 km/h (2 Bft) N-NO 21 0 min 0,000 mm 0,7 UV-I 102 W/m 0,7 C 2,8 C 17,7 km/h (3 Bft)
13.03.2016 09:45 3,6 C 81 % 1034,0 hPa 0,0 l/m 7,2 km/h (2 Bft) O-NO 61 0 min 0,000 mm 0,8 UV-I 108 W/m 0,7 C 2,9 C 25,7 km/h (4 Bft)
13.03.2016 09:50 3,6 C 82 % 1034,0 hPa 0,0 l/m 4,1 km/h (1 Bft) O 79 0 min 0,000 mm 0,9 UV-I 117 W/m 0,8 C 3,6 C 17,7 km/h (3 Bft)
13.03.2016 09:55 3,6 C 81 % 1034,0 hPa 0,0 l/m 8,7 km/h (2 Bft) O 84 0 min 0,000 mm 1,0 UV-I 132 W/m 0,7 C 1,5 C 19,3 km/h (3 Bft)
13.03.2016 10:00 3,6 C 81 % 1034,0 hPa 0,0 l/m 9,7 km/h (2 Bft) O-NO 70 0 min 0,051 mm 1,1 UV-I 150 W/m 0,7 C 0,8 C 22,5 km/h (4 Bft)
13.03.2016 10:05 3,7 C 81 % 1034,0 hPa 0,0 l/m 11,1 km/h (2 Bft) NO 51 0 min 0,000 mm 1,3 UV-I 210 W/m 0,7 C -0,1 C 24,1 km/h (4 Bft)
13.03.2016 10:10 3,9 C 80 % 1034,0 hPa 0,0 l/m 9,4 km/h (2 Bft) O-NO 65 0 min 0,000 mm 1,4 UV-I 210 W/m 0,8 C 1,3 C 20,9 km/h (4 Bft)
13.03.2016 10:15 4,2 C 80 % 1034,0 hPa 0,0 l/m 8,0 km/h (2 Bft) NO 51 0 min 0,000 mm 1,5 UV-I 215 W/m 1,1 C 2,8 C 25,7 km/h (4 Bft)
13.03.2016 10:20 4,3 C 79 % 1034,0 hPa 0,0 l/m 7,7 km/h (2 Bft) NO 52 0 min 0,000 mm 1,4 UV-I 143 W/m 1,0 C 3,1 C 19,3 km/h (3 Bft)
13.03.2016 10:25 4,3 C 79 % 1034,1 hPa 0,0 l/m 7,4 km/h (2 Bft) O-NO 59 0 min 0,000 mm 1,3 UV-I 149 W/m 1,0 C 3,4 C 24,1 km/h (4 Bft)
13.03.2016 10:30 4,3 C 79 % 1034,0 hPa 0,0 l/m 6,8 km/h (2 Bft) NO 55 0 min 0,000 mm 1,5 UV-I 209 W/m 1,0 C 3,9 C 19,3 km/h (3 Bft)
13.03.2016 10:35 4,4 C 78 % 1034,1 hPa 0,0 l/m 9,1 km/h (2 Bft) O-NO 64 0 min 0,000 mm 1,6 UV-I 239 W/m 0,9 C 2,1 C 19,3 km/h (3 Bft)
13.03.2016 10:40 4,8 C 78 % 1034,0 hPa 0,0 l/m 6,6 km/h (2 Bft) O-NO 61 0 min 0,000 mm 1,8 UV-I 271 W/m 1,3 C 4,6 C 17,7 km/h (3 Bft)
13.03.2016 10:45 4,9 C 77 % 1034,0 hPa 0,0 l/m 9,4 km/h (2 Bft) N-NO 30 0 min 0,000 mm 1,9 UV-I 244 W/m 1,2 C 2,4 C 19,3 km/h (3 Bft)
13.03.2016 10:50 5,1 C 76 % 1034,1 hPa 0,0 l/m 6,5 km/h (2 Bft) O-NO 62 0 min 0,000 mm 1,7 UV-I 238 W/m 1,2 C 5,0 C 20,9 km/h (4 Bft)
13.03.2016 10:55 5,0 C 77 % 1034,0 hPa 0,0 l/m 8,9 km/h (2 Bft) O-NO 69 0 min 0,000 mm 1,5 UV-I 210 W/m 1,3 C 2,9 C 27,4 km/h (4 Bft)
13.03.2016 11:00 4,9 C 76 % 1034,0 hPa 0,0 l/m 8,4 km/h (2 Bft) NO 39 0 min 0,102 mm 1,5 UV-I 209 W/m 1,0 C 3,2 C 27,4 km/h (4 Bft)
13.03.2016 11:05 4,9 C 77 % 1034,0 hPa 0,0 l/m 10,1 km/h (2 Bft) NO 38 0 min 0,000 mm 1,5 UV-I 204 W/m 1,2 C 1,9 C 19,3 km/h (3 Bft)
13.03.2016 11:10 5,2 C 77 % 1034,0 hPa 0,0 l/m 4,8 km/h (1 Bft) O-NO 78 0 min 0,000 mm 1,6 UV-I 222 W/m 1,5 C 5,2 C 14,5 km/h (3 Bft)
13.03.2016 11:15 5,3 C 75 % 1034,1 hPa 0,0 l/m 6,8 km/h (2 Bft) NO 34 0 min 0,000 mm 1,5 UV-I 202 W/m 1,2 C 5,0 C 19,3 km/h (3 Bft)
13.03.2016 11:20 5,4 C 77 % 1034,0 hPa 0,0 l/m 4,5 km/h (1 Bft) N-NO 28 0 min 0,000 mm 1,6 UV-I 225 W/m 1,7 C 5,4 C 16,1 km/h (3 Bft)
13.03.2016 11:25 5,6 C 75 % 1034,0 hPa 0,0 l/m 5,9 km/h (2 Bft) N-NO 32 0 min 0,000 mm 1,8 UV-I 242 W/m 1,5 C 5,6 C 14,5 km/h (3 Bft)
13.03.2016 11:30 5,4 C 75 % 1034,0 hPa 0,0 l/m 9,0 km/h (2 Bft) O-NO 67 0 min 0,000 mm 2,0 UV-I 265 W/m 1,3 C 3,2 C 27,4 km/h (4 Bft)
13.03.2016 11:35 5,3 C 76 % 1034,1 hPa 0,0 l/m 13,3 km/h (3 Bft) O-NO 65 0 min 0,000 mm 2,1 UV-I 294 W/m 1,4 C 0,3 C 29,0 km/h (5 Bft)
13.03.2016 11:40 5,4 C 76 % 1034,1 hPa 0,0 l/m 12,3 km/h (3 Bft) N-NO 15 0 min 0,000 mm 2,1 UV-I 305 W/m 1,5 C 1,0 C 24,1 km/h (4 Bft)
13.03.2016 11:45 5,6 C 75 % 1034,1 hPa 0,0 l/m 8,2 km/h (2 Bft) O-NO 58 0 min 0,000 mm 1,9 UV-I 268 W/m 1,5 C 4,1 C 22,5 km/h (4 Bft)
13.03.2016 11:50 5,7 C 74 % 1034,1 hPa 0,0 l/m 7,8 km/h (2 Bft) O-NO 76 0 min 0,000 mm 1,8 UV-I 247 W/m 1,4 C 4,5 C 24,1 km/h (4 Bft)
13.03.2016 11:55 5,4 C 75 % 1034,1 hPa 0,0 l/m 11,1 km/h (2 Bft) O-NO 57 0 min 0,000 mm 1,9 UV-I 263 W/m 1,3 C 1,8 C 25,7 km/h (4 Bft)
13.03.2016 12:00 5,3 C 75 % 1034,1 hPa 0,0 l/m 9,6 km/h (2 Bft) O-NO 67 0 min 0,127 mm 1,7 UV-I 242 W/m 1,2 C 2,7 C 20,9 km/h (4 Bft)
13.03.2016 12:05 5,2 C 76 % 1034,0 hPa 0,0 l/m 11,9 km/h (2 Bft) O-NO 59 0 min 0,000 mm 1,8 UV-I 232 W/m 1,3 C 1,0 C 24,1 km/h (4 Bft)
13.03.2016 12:10 5,2 C 75 % 1033,9 hPa 0,0 l/m 12,8 km/h (3 Bft) O-NO 57 0 min 0,000 mm 2,0 UV-I 262 W/m 1,1 C 0,5 C 27,4 km/h (4 Bft)
13.03.2016 12:15 5,2 C 76 % 1033,9 hPa 0,0 l/m 8,8 km/h (2 Bft) O-NO 63 0 min 0,000 mm 2,0 UV-I 237 W/m 1,3 C 3,2 C 30,6 km/h (5 Bft)
13.03.2016 12:20 5,2 C 76 % 1034,0 hPa 0,0 l/m 12,6 km/h (3 Bft) NO 54 0 min 0,000 mm 1,9 UV-I 229 W/m 1,3 C 0,6 C 25,7 km/h (4 Bft)
13.03.2016 12:25 5,2 C 75 % 1034,0 hPa 0,0 l/m 12,3 km/h (3 Bft) NO 46 0 min 0,000 mm 1,9 UV-I 234 W/m 1,1 C 0,8 C 22,5 km/h (4 Bft)
13.03.2016 12:30 5,4 C 76 % 1033,8 hPa 0,0 l/m 4,8 km/h (1 Bft) O-NO 60 0 min 0,000 mm 2,0 UV-I 248 W/m 1,5 C 5,4 C 17,7 km/h (3 Bft)
13.03.2016 12:35 5,9 C 74 % 1033,9 hPa 0,0 l/m 4,2 km/h (1 Bft) NO 38 0 min 0,000 mm 2,3 UV-I 324 W/m 1,6 C 5,9 C 17,7 km/h (3 Bft)
13.03.2016 12:40 6,2 C 73 % 1034,0 hPa 0,0 l/m 9,3 km/h (2 Bft) O-NO 57 5 min 0,000 mm 2,6 UV-I 344 W/m 1,7 C 3,9 C 22,5 km/h (4 Bft)
13.03.2016 12:45 6,4 C 73 % 1034,0 hPa 0,0 l/m 7,8 km/h (2 Bft) O-NO 64 0 min 0,000 mm 2,0 UV-I 290 W/m 1,9 C 5,2 C 20,9 km/h (4 Bft)
13.03.2016 12:50 6,3 C 72 % 1034,0 hPa 0,0 l/m 9,5 km/h (2 Bft) NO 51 0 min 0,000 mm 1,8 UV-I 251 W/m 1,6 C 3,9 C 20,9 km/h (4 Bft)
13.03.2016 12:55 5,9 C 73 % 1033,8 hPa 0,0 l/m 10,6 km/h (2 Bft) O-NO 60 0 min 0,000 mm 2,0 UV-I 305 W/m 1,4 C 2,7 C 20,9 km/h (4 Bft)
13.03.2016 13:00 5,9 C 73 % 1033,8 hPa 0,0 l/m 10,0 km/h (2 Bft) O-NO 65 0 min 0,127 mm 1,9 UV-I 279 W/m 1,4 C 3,1 C 20,9 km/h (4 Bft)
13.03.2016 13:05 6,0 C 73 % 1033,8 hPa 0,0 l/m 9,9 km/h (2 Bft) O-NO 76 0 min 0,000 mm 2,0 UV-I 287 W/m 1,5 C 3,2 C 19,3 km/h (3 Bft)
13.03.2016 13:10 6,0 C 74 % 1033,7 hPa 0,0 l/m 10,4 km/h (2 Bft) SO 129 5 min 0,000 mm 2,3 UV-I 368 W/m 1,7 C 2,9 C 20,9 km/h (4 Bft)
13.03.2016 13:15 6,3 C 72 % 1033,6 hPa 0,0 l/m 13,1 km/h (3 Bft) N-NO 32 5 min 0,000 mm 2,3 UV-I 372 W/m 1,6 C 1,6 C 25,7 km/h (4 Bft)
13.03.2016 13:20 6,2 C 73 % 1033,6 hPa 0,0 l/m 14,6 km/h (3 Bft) O 92 5 min 0,000 mm 2,3 UV-I 360 W/m 1,7 C 0,7 C 24,1 km/h (4 Bft)
13.03.2016 13:25 6,4 C 72 % 1033,5 hPa 0,0 l/m 10,4 km/h (2 Bft) N-NO 17 5 min 0,000 mm 2,3 UV-I 380 W/m 1,7 C 3,4 C 20,9 km/h (4 Bft)
13.03.2016 13:30 6,6 C 71 % 1033,5 hPa 0,0 l/m 11,5 km/h (2 Bft) N-NO 24 5 min 0,000 mm 2,4 UV-I 432 W/m 1,7 C 2,9 C 27,4 km/h (4 Bft)
13.03.2016 13:35 6,9 C 71 % 1033,4 hPa 0,0 l/m 6,0 km/h (2 Bft) NO 34 5 min 0,000 mm 2,2 UV-I 372 W/m 2,0 C 6,9 C 12,9 km/h (3 Bft)
13.03.2016 13:40 6,9 C 69 % 1033,3 hPa 0,0 l/m 8,5 km/h (2 Bft) O-NO 66 5 min 0,000 mm 2,2 UV-I 321 W/m 1,6 C 5,2 C 20,9 km/h (4 Bft)
13.03.2016 13:45 6,8 C 72 % 1033,3 hPa 0,0 l/m 5,1 km/h (1 Bft) O-NO 76 0 min 0,000 mm 2,0 UV-I 303 W/m 2,1 C 6,8 C 16,1 km/h (3 Bft)
13.03.2016 13:50 6,7 C 70 % 1033,2 hPa 0,0 l/m 14,4 km/h (3 Bft) O-NO 63 0 min 0,000 mm 1,9 UV-I 265 W/m 1,6 C 1,4 C 27,4 km/h (4 Bft)
13.03.2016 13:55 6,3 C 71 % 1033,1 hPa 0,0 l/m 16,4 km/h (3 Bft) O-NO 63 0 min 0,000 mm 2,1 UV-I 306 W/m 1,4 C -0,0 C 29,0 km/h (5 Bft)
13.03.2016 14:00 6,3 C 72 % 1033,2 hPa 0,0 l/m 12,8 km/h (3 Bft) O 96 0 min 0,178 mm 1,9 UV-I 256 W/m 1,6 C 1,8 C 37,0 km/h (5 Bft)
13.03.2016 14:05 6,3 C 72 % 1033,2 hPa 0,0 l/m 11,7 km/h (2 Bft) O-NO 60 0 min 0,000 mm 1,7 UV-I 240 W/m 1,6 C 2,4 C 25,7 km/h (4 Bft)
13.03.2016 14:10 6,5 C 72 % 1033,2 hPa 0,0 l/m 9,4 km/h (2 Bft) NO 53 0 min 0,000 mm 2,0 UV-I 297 W/m 1,8 C 4,1 C 22,5 km/h (4 Bft)
13.03.2016 14:15 6,8 C 69 % 1033,2 hPa 0,0 l/m 11,1 km/h (2 Bft) NO 53 5 min 0,000 mm 1,9 UV-I 303 W/m 1,5 C 3,4 C 19,3 km/h (3 Bft)
13.03.2016 14:20 6,8 C 70 % 1033,2 hPa 0,0 l/m 8,8 km/h (2 Bft) O-NO 75 0 min 0,000 mm 1,8 UV-I 258 W/m 1,7 C 4,9 C 17,7 km/h (3 Bft)
13.03.2016 14:25 6,6 C 70 % 1033,1 hPa 0,0 l/m 14,8 km/h (3 Bft) O 88 0 min 0,000 mm 1,8 UV-I 258 W/m 1,5 C 1,1 C 25,7 km/h (4 Bft)
13.03.2016 14:30 6,6 C 70 % 1033,2 hPa 0,0 l/m 10,2 km/h (2 Bft) NO 45 5 min 0,000 mm 1,7 UV-I 294 W/m 1,5 C 3,7 C 32,2 km/h (5 Bft)
13.03.2016 14:35 6,6 C 70 % 1033,2 hPa 0,0 l/m 12,3 km/h (3 Bft) N-NW 329 0 min 0,000 mm 1,4 UV-I 215 W/m 1,5 C 2,4 C 22,5 km/h (4 Bft)
13.03.2016 14:40 6,8 C 71 % 1033,2 hPa 0,0 l/m 5,6 km/h (1 Bft) N-NO 21 0 min 0,000 mm 1,5 UV-I 265 W/m 1,9 C 6,8 C 16,1 km/h (3 Bft)
13.03.2016 14:45 7,2 C 68 % 1033,1 hPa 0,0 l/m 10,7 km/h (2 Bft) O-NO 67 0 min 0,000 mm 1,8 UV-I 261 W/m 1,7 C 4,1 C 27,4 km/h (4 Bft)
13.03.2016 14:50 7,6 C 67 % 1033,0 hPa 0,0 l/m 5,2 km/h (1 Bft) O-NO 57 5 min 0,000 mm 1,6 UV-I 318 W/m 1,9 C 7,6 C 17,7 km/h (3 Bft)
13.03.2016 14:55 7,5 C 67 % 1033,0 hPa 0,0 l/m 8,0 km/h (2 Bft) O 89 0 min 0,000 mm 1,5 UV-I 243 W/m 1,8 C 6,2 C 20,9 km/h (4 Bft)
13.03.2016 15:00 7,3 C 69 % 1032,9 hPa 0,0 l/m 6,1 km/h (2 Bft) S-SO 153 0 min 0,152 mm 1,4 UV-I 239 W/m 2,0 C 7,3 C 17,7 km/h (3 Bft)
13.03.2016 15:05 7,4 C 67 % 1033,0 hPa 0,0 l/m 5,4 km/h (1 Bft) O-NO 70 0 min 0,000 mm 1,1 UV-I 196 W/m 1,7 C 7,4 C 19,3 km/h (3 Bft)
13.03.2016 15:10 7,2 C 68 % 1033,0 hPa 0,0 l/m 5,4 km/h (1 Bft) NO 34 0 min 0,000 mm 0,9 UV-I 164 W/m 1,7 C 7,2 C 19,3 km/h (3 Bft)
13.03.2016 15:15 7,2 C 68 % 1032,9 hPa 0,0 l/m 5,4 km/h (1 Bft) N-NO 19 0 min 0,000 mm 0,9 UV-I 164 W/m 1,7 C 7,2 C 17,7 km/h (3 Bft)
13.03.2016 15:20 7,2 C 68 % 1033,0 hPa 0,0 l/m 6,4 km/h (2 Bft) O 83 5 min 0,000 mm 1,1 UV-I 259 W/m 1,7 C 7,2 C 19,3 km/h (3 Bft)
13.03.2016 15:25 7,3 C 68 % 1032,9 hPa 0,0 l/m 4,9 km/h (1 Bft) O-NO 65 0 min 0,000 mm 1,1 UV-I 233 W/m 1,8 C 7,3 C 16,1 km/h (3 Bft)
13.03.2016 15:30 7,3 C 65 % 1032,8 hPa 0,0 l/m 5,9 km/h (2 Bft) NO 51 0 min 0,000 mm 1,1 UV-I 184 W/m 1,2 C 7,3 C 20,9 km/h (4 Bft)
13.03.2016 15:35 7,2 C 65 % 1032,8 hPa 0,0 l/m 7,2 km/h (2 Bft) O-NO 76 0 min 0,000 mm 0,9 UV-I 185 W/m 1,1 C 6,5 C 19,3 km/h (3 Bft)
13.03.2016 15:40 7,2 C 67 % 1032,8 hPa 0,0 l/m 7,5 km/h (2 Bft) N-NO 29 5 min 0,000 mm 1,0 UV-I 279 W/m 1,5 C 6,3 C 19,3 km/h (3 Bft)
13.03.2016 15:45 8,1 C 64 % 1032,9 hPa 0,0 l/m 3,0 km/h (1 Bft) N-NO 24 5 min 0,000 mm 1,1 UV-I 507 W/m 1,7 C 8,1 C 16,1 km/h (3 Bft)
13.03.2016 15:50 8,9 C 63 % 1032,8 hPa 0,0 l/m 2,3 km/h (1 Bft) N-NO 23 5 min 0,000 mm 1,0 UV-I 444 W/m 2,2 C 8,9 C 16,1 km/h (3 Bft)
13.03.2016 15:55 8,7 C 62 % 1032,8 hPa 0,0 l/m 3,4 km/h (1 Bft) O-NO 59 0 min 0,000 mm 0,9 UV-I 200 W/m 1,8 C 8,7 C 20,9 km/h (4 Bft)
13.03.2016 16:00 8,1 C 63 % 1032,7 hPa 0,0 l/m 5,4 km/h (1 Bft) N-NO 22 0 min 0,127 mm 0,8 UV-I 188 W/m 1,5 C 8,1 C 22,5 km/h (4 Bft)
13.03.2016 16:05 7,7 C 64 % 1032,7 hPa 0,0 l/m 9,2 km/h (2 Bft) NO 45 5 min 0,000 mm 0,9 UV-I 221 W/m 1,3 C 5,6 C 24,1 km/h (4 Bft)
13.03.2016 16:10 7,5 C 65 % 1032,6 hPa 0,0 l/m 6,9 km/h (2 Bft) O-NO 66 0 min 0,000 mm 0,9 UV-I 180 W/m 1,4 C 7,1 C 22,5 km/h (4 Bft)
13.03.2016 16:15 7,4 C 65 % 1032,5 hPa 0,0 l/m 6,3 km/h (2 Bft) O 81 5 min 0,000 mm 0,9 UV-I 352 W/m 1,3 C 7,4 C 25,7 km/h (4 Bft)
13.03.2016 16:20 7,7 C 65 % 1032,5 hPa 0,0 l/m 5,8 km/h (2 Bft) N-NO 26 5 min 0,000 mm 0,8 UV-I 304 W/m 1,5 C 7,7 C 17,7 km/h (3 Bft)
13.03.2016 16:25 7,8 C 66 % 1032,5 hPa 0,0 l/m 6,3 km/h (2 Bft) N 11 5 min 0,000 mm 0,8 UV-I 203 W/m 1,9 C 7,8 C 19,3 km/h (3 Bft)
13.03.2016 16:30 8,4 C 64 % 1032,5 hPa 0,0 l/m 3,5 km/h (1 Bft) NO 42 5 min 0,000 mm 0,8 UV-I 288 W/m 2,0 C 8,4 C 19,3 km/h (3 Bft)
13.03.2016 16:35 8,8 C 63 % 1032,5 hPa 0,0 l/m 2,9 km/h (1 Bft) NO 44 5 min 0,000 mm 0,7 UV-I 284 W/m 2,2 C 8,8 C 11,3 km/h (2 Bft)
13.03.2016 16:40 8,4 C 62 % 1032,5 hPa 0,0 l/m 4,8 km/h (1 Bft) NO 40 5 min 0,000 mm 0,7 UV-I 267 W/m 1,6 C 8,4 C 19,3 km/h (3 Bft)
13.03.2016 16:45 8,1 C 62 % 1032,5 hPa 0,0 l/m 4,4 km/h (1 Bft) NO 38 5 min 0,000 mm 0,6 UV-I 236 W/m 1,3 C 8,1 C 22,5 km/h (4 Bft)
13.03.2016 16:50 8,3 C 62 % 1032,5 hPa 0,0 l/m 3,4 km/h (1 Bft) O-NO 57 5 min 0,000 mm 0,6 UV-I 244 W/m 1,5 C 8,3 C 16,1 km/h (3 Bft)
13.03.2016 16:55 7,7 C 64 % 1032,5 hPa 0,0 l/m 8,4 km/h (2 Bft) NO 56 5 min 0,000 mm 0,5 UV-I 225 W/m 1,3 C 6,1 C 25,7 km/h (4 Bft)
13.03.2016 17:00 7,8 C 64 % 1032,5 hPa 0,0 l/m 4,9 km/h (1 Bft) O-NO 60 5 min 0,127 mm 0,5 UV-I 184 W/m 1,4 C 7,8 C 17,7 km/h (3 Bft)
13.03.2016 17:05 7,5 C 65 % 1032,5 hPa 0,0 l/m 8,7 km/h (2 Bft) NO 42 5 min 0,000 mm 0,5 UV-I 186 W/m 1,4 C 5,7 C 24,1 km/h (4 Bft)
13.03.2016 17:10 7,6 C 64 % 1032,5 hPa 0,0 l/m 5,6 km/h (1 Bft) O-NO 66 5 min 0,000 mm 0,3 UV-I 172 W/m 1,2 C 7,6 C 17,7 km/h (3 Bft)
13.03.2016 17:15 7,7 C 64 % 1032,5 hPa 0,0 l/m 0,5 km/h (0 Bft) O-NO 69 5 min 0,000 mm 0,0 UV-I 153 W/m 1,3 C 7,7 C 8,0 km/h (2 Bft)
13.03.2016 17:20 7,7 C 64 % 1032,5 hPa 0,0 l/m 5,4 km/h (1 Bft) O-NO 74 5 min 0,000 mm 0,0 UV-I 142 W/m 1,3 C 7,7 C 12,9 km/h (3 Bft)
13.03.2016 17:25 7,4 C 64 % 1032,4 hPa 0,0 l/m 4,4 km/h (1 Bft) N-NO 12 5 min 0,000 mm 0,0 UV-I 125 W/m 1,0 C 7,4 C 22,5 km/h (4 Bft)
13.03.2016 17:30 7,2 C 66 % 1032,4 hPa 0,0 l/m 2,5 km/h (1 Bft) NO 38 5 min 0,000 mm 0,0 UV-I 108 W/m 1,3 C 7,2 C 9,7 km/h (2 Bft)
13.03.2016 17:35 7,3 C 66 % 1032,4 hPa 0,0 l/m 0,5 km/h (0 Bft) N-NO 26 5 min 0,000 mm 0,0 UV-I 96 W/m 1,4 C 7,3 C 6,4 km/h (2 Bft)
13.03.2016 17:40 7,3 C 65 % 1032,5 hPa 0,0 l/m 3,6 km/h (1 Bft) NO 46 5 min 0,000 mm 0,0 UV-I 81 W/m 1,2 C 7,3 C 11,3 km/h (2 Bft)
13.03.2016 17:45 6,9 C 66 % 1032,5 hPa 0,0 l/m 3,1 km/h (1 Bft) O-NO 58 5 min 0,000 mm 0,0 UV-I 68 W/m 1,0 C 6,9 C 11,3 km/h (2 Bft)
13.03.2016 17:50 6,7 C 67 % 1032,6 hPa 0,0 l/m 4,5 km/h (1 Bft) N-NO 26 5 min 0,000 mm 0,0 UV-I 58 W/m 1,0 C 6,7 C 16,1 km/h (3 Bft)
13.03.2016 17:55 6,5 C 68 % 1032,6 hPa 0,0 l/m 2,0 km/h (1 Bft) NO 50 5 min 0,000 mm 0,0 UV-I 47 W/m 1,0 C 6,5 C 11,3 km/h (2 Bft)
13.03.2016 18:00 6,5 C 68 % 1032,5 hPa 0,0 l/m 0,1 km/h (0 Bft) N-NO 28 0 min 0,051 mm 0,0 UV-I 28 W/m 1,0 C 6,5 C 1,6 km/h (1 Bft)
13.03.2016 18:05 6,4 C 68 % 1032,5 hPa 0,0 l/m 2,9 km/h (1 Bft) O-NO 62 0 min 0,000 mm 0,0 UV-I 26 W/m 0,9 C 6,4 C 12,9 km/h (3 Bft)
13.03.2016 18:10 6,2 C 68 % 1032,7 hPa 0,0 l/m 0,3 km/h (0 Bft) N-NW 335 0 min 0,000 mm 0,0 UV-I 17 W/m 0,7 C 6,2 C 6,4 km/h (2 Bft)
13.03.2016 18:15 6,0 C 69 % 1032,6 hPa 0,0 l/m 1,5 km/h (1 Bft) NO 45 0 min 0,000 mm 0,0 UV-I 12 W/m 0,8 C 6,0 C 11,3 km/h (2 Bft)
13.03.2016 18:20 5,7 C 70 % 1032,8 hPa 0,0 l/m 2,2 km/h (1 Bft) O-NO 67 0 min 0,000 mm 0,0 UV-I 10 W/m 0,7 C 5,7 C 12,9 km/h (3 Bft)
13.03.2016 18:25 5,6 C 71 % 1032,9 hPa 0,0 l/m 0,2 km/h (0 Bft) O-NO 66 0 min 0,000 mm 0,0 UV-I 7 W/m 0,8 C 5,6 C 6,4 km/h (2 Bft)
13.03.2016 18:30 5,3 C 72 % 1032,9 hPa 0,0 l/m 2,0 km/h (1 Bft) O-NO 65 0 min 0,000 mm 0,0 UV-I 5 W/m 0,7 C 5,3 C 11,3 km/h (2 Bft)
13.03.2016 18:35 5,1 C 73 % 1033,0 hPa 0,0 l/m 2,4 km/h (1 Bft) NO 55 0 min 0,000 mm 0,0 UV-I 0 W/m 0,7 C 5,1 C 11,3 km/h (2 Bft)
13.03.2016 18:40 4,8 C 73 % 1033,0 hPa 0,0 l/m 0,0 km/h (0 Bft) O-NO 63 0 min 0,000 mm 0,0 UV-I 0 W/m 0,4 C 4,8 C 0,0 km/h (0 Bft)
13.03.2016 18:45 4,7 C 74 % 1033,1 hPa 0,0 l/m 2,7 km/h (1 Bft) O-NO 57 0 min 0,000 mm 0,0 UV-I 0 W/m 0,5 C 4,7 C 16,1 km/h (3 Bft)
13.03.2016 18:50 4,6 C 74 % 1033,1 hPa 0,0 l/m 0,0 km/h (0 Bft) O 79 0 min 0,000 mm 0,0 UV-I 0 W/m 0,4 C 4,6 C 0,0 km/h (0 Bft)
13.03.2016 18:55 4,4 C 75 % 1033,2 hPa 0,0 l/m 0,0 km/h (0 Bft) N-NO 32 0 min 0,000 mm 0,0 UV-I 0 W/m 0,4 C 4,4 C 0,0 km/h (0 Bft)
13.03.2016 19:00 4,3 C 75 % 1033,2 hPa 0,0 l/m 4,8 km/h (1 Bft) O-NO 73 0 min 0,000 mm 0,0 UV-I 0 W/m 0,3 C 4,3 C 14,5 km/h (3 Bft)
13.03.2016 19:05 4,2 C 75 % 1033,3 hPa 0,0 l/m 0,0 km/h (0 Bft) NO 50 0 min 0,000 mm 0,0 UV-I 0 W/m 0,2 C 4,2 C 0,0 km/h (0 Bft)
13.03.2016 19:10 4,1 C 76 % 1033,3 hPa 0,0 l/m 0,4 km/h (0 Bft) NO 55 0 min 0,000 mm 0,0 UV-I 0 W/m 0,3 C 4,1 C 11,3 km/h (2 Bft)
13.03.2016 19:15 4,1 C 76 % 1033,3 hPa 0,0 l/m 2,0 km/h (1 Bft) NO 51 0 min 0,000 mm 0,0 UV-I 0 W/m 0,3 C 4,1 C 9,7 km/h (2 Bft)
13.03.2016 19:20 4,1 C 76 % 1033,3 hPa 0,0 l/m 2,0 km/h (1 Bft) NO 54 0 min 0,000 mm 0,0 UV-I 0 W/m 0,3 C 4,1 C 11,3 km/h (2 Bft)
13.03.2016 19:25 4,1 C 77 % 1033,4 hPa 0,0 l/m 1,6 km/h (1 Bft) O-NO 64 0 min 0,000 mm 0,0 UV-I 0 W/m 0,4 C 4,1 C 12,9 km/h (3 Bft)
13.03.2016 19:30 4,0 C 77 % 1033,4 hPa 0,0 l/m 6,0 km/h (2 Bft) N-NO 25 0 min 0,000 mm 0,0 UV-I 0 W/m 0,3 C 4,0 C 14,5 km/h (3 Bft)
13.03.2016 19:35 3,9 C 77 % 1033,4 hPa 0,0 l/m 5,0 km/h (1 Bft) O 100 0 min 0,000 mm 0,0 UV-I 0 W/m 0,2 C 3,9 C 12,9 km/h (3 Bft)
13.03.2016 19:40 3,8 C 78 % 1033,4 hPa 0,0 l/m 0,0 km/h (0 Bft) NO 55 0 min 0,000 mm 0,0 UV-I 0 W/m 0,3 C 3,8 C 0,0 km/h (0 Bft)
13.03.2016 19:45 3,7 C 78 % 1033,4 hPa 0,0 l/m 0,0 km/h (0 Bft) O-NO 60 0 min 0,000 mm 0,0 UV-I 0 W/m 0,2 C 3,7 C 0,0 km/h (0 Bft)
13.03.2016 19:50 3,6 C 79 % 1033,5 hPa 0,0 l/m 3,5 km/h (1 Bft) NO 53 0 min 0,000 mm 0,0 UV-I 0 W/m 0,3 C 3,6 C 12,9 km/h (3 Bft)
13.03.2016 19:55 3,4 C 79 % 1033,5 hPa 0,0 l/m 4,8 km/h (1 Bft) NO 49 0 min 0,000 mm 0,0 UV-I 0 W/m 0,1 C 3,4 C 11,3 km/h (2 Bft)
13.03.2016 20:00 3,3 C 79 % 1033,5 hPa 0,0 l/m 9,2 km/h (2 Bft) O-SO 110 0 min 0,025 mm 0,0 UV-I 0 W/m 0,0 C 0,8 C 22,5 km/h (4 Bft)
13.03.2016 20:05 3,3 C 80 % 1033,5 hPa 0,0 l/m 4,2 km/h (1 Bft) O 95 0 min 0,000 mm 0,0 UV-I 0 W/m 0,2 C 3,3 C 14,5 km/h (3 Bft)
13.03.2016 20:10 3,2 C 80 % 1033,5 hPa 0,0 l/m 7,9 km/h (2 Bft) NO 49 0 min 0,000 mm 0,0 UV-I 0 W/m 0,1 C 1,8 C 17,7 km/h (3 Bft)
13.03.2016 20:15 3,2 C 80 % 1033,4 hPa 0,0 l/m 8,5 km/h (2 Bft) O-NO 63 0 min 0,000 mm 0,0 UV-I 0 W/m 0,1 C 1,3 C 16,1 km/h (3 Bft)
13.03.2016 20:20 3,1 C 80 % 1033,4 hPa 0,0 l/m 8,8 km/h (2 Bft) O-NO 61 0 min 0,000 mm 0,0 UV-I 0 W/m -0,0 C 0,9 C 17,7 km/h (3 Bft)
13.03.2016 20:25 3,1 C 80 % 1033,4 hPa 0,0 l/m 10,5 km/h (2 Bft) NO 46 0 min 0,000 mm 0,0 UV-I 0 W/m -0,0 C -0,4 C 19,3 km/h (3 Bft)
13.03.2016 20:30 3,0 C 80 % 1033,4 hPa 0,0 l/m 9,4 km/h (2 Bft) O-NO 66 0 min 0,000 mm 0,0 UV-I 0 W/m -0,1 C 0,3 C 14,5 km/h (3 Bft)
13.03.2016 20:35 2,9 C 80 % 1033,4 hPa 0,0 l/m 10,9 km/h (2 Bft) NO 42 0 min 0,000 mm 0,0 UV-I 0 W/m -0,2 C -0,9 C 19,3 km/h (3 Bft)
13.03.2016 20:40 2,8 C 80 % 1033,5 hPa 0,0 l/m 7,5 km/h (2 Bft) O 84 0 min 0,000 mm 0,0 UV-I 0 W/m -0,3 C 1,8 C 14,5 km/h (3 Bft)
13.03.2016 20:45 2,8 C 80 % 1033,5 hPa 0,0 l/m 5,9 km/h (2 Bft) NO 44 0 min 0,000 mm 0,0 UV-I 0 W/m -0,3 C 2,8 C 16,1 km/h (3 Bft)
13.03.2016 20:50 2,7 C 80 % 1033,5 hPa 0,0 l/m 8,9 km/h (2 Bft) O-NO 66 0 min 0,000 mm 0,0 UV-I 0 W/m -0,4 C 0,4 C 16,1 km/h (3 Bft)
13.03.2016 20:55 2,7 C 79 % 1033,5 hPa 0,0 l/m 11,8 km/h (2 Bft) O 91 0 min 0,000 mm 0,0 UV-I 0 W/m -0,6 C -1,8 C 19,3 km/h (3 Bft)
13.03.2016 21:00 2,6 C 79 % 1033,6 hPa 0,0 l/m 10,7 km/h (2 Bft) O-NO 68 0 min 0,026 mm 0,0 UV-I 0 W/m -0,7 C -1,1 C 20,9 km/h (4 Bft)
13.03.2016 21:05 2,5 C 78 % 1033,5 hPa 0,0 l/m 10,9 km/h (2 Bft) NO 48 0 min 0,000 mm 0,0 UV-I 0 W/m -0,9 C -1,4 C 20,9 km/h (4 Bft)
13.03.2016 21:10 2,4 C 78 % 1033,6 hPa 0,0 l/m 9,6 km/h (2 Bft) O-NO 61 0 min 0,000 mm 0,0 UV-I 0 W/m -1,0 C -0,5 C 20,9 km/h (4 Bft)
13.03.2016 21:15 2,3 C 78 % 1033,7 hPa 0,0 l/m 5,8 km/h (2 Bft) N 9 0 min 0,000 mm 0,0 UV-I 0 W/m -1,1 C 2,3 C 16,1 km/h (3 Bft)
13.03.2016 21:20 2,1 C 78 % 1033,6 hPa 0,0 l/m 10,6 km/h (2 Bft) NO 51 0 min 0,000 mm 0,0 UV-I 0 W/m -1,3 C -1,6 C 20,9 km/h (4 Bft)
13.03.2016 21:25 2,0 C 78 % 1033,6 hPa 0,0 l/m 9,0 km/h (2 Bft) O-NO 58 0 min 0,000 mm 0,0 UV-I 0 W/m -1,4 C -0,4 C 20,9 km/h (4 Bft)
13.03.2016 21:30 1,8 C 78 % 1033,7 hPa 0,0 l/m 9,9 km/h (2 Bft) NO 54 0 min 0,000 mm 0,0 UV-I 0 W/m -1,6 C -1,4 C 20,9 km/h (4 Bft)
13.03.2016 21:35 1,7 C 78 % 1033,8 hPa 0,0 l/m 10,1 km/h (2 Bft) O-NO 71 0 min 0,000 mm 0,0 UV-I 0 W/m -1,7 C -1,7 C 22,5 km/h (4 Bft)
13.03.2016 21:40 1,6 C 78 % 1033,8 hPa 0,0 l/m 8,9 km/h (2 Bft) O-NO 63 0 min 0,000 mm 0,0 UV-I 0 W/m -1,8 C -0,8 C 17,7 km/h (3 Bft)
13.03.2016 21:45 1,5 C 78 % 1033,8 hPa 0,0 l/m 6,5 km/h (2 Bft) O-NO 59 0 min 0,000 mm 0,0 UV-I 0 W/m -1,9 C 1,4 C 12,9 km/h (3 Bft)
13.03.2016 21:50 1,3 C 78 % 1033,7 hPa 0,0 l/m 8,9 km/h (2 Bft) O-NO 60 0 min 0,000 mm 0,0 UV-I 0 W/m -2,1 C -1,1 C 19,3 km/h (3 Bft)
13.03.2016 21:55 1,2 C 79 % 1033,8 hPa 0,0 l/m 7,2 km/h (2 Bft) O 80 0 min 0,000 mm 0,0 UV-I 0 W/m -2,0 C 0,4 C 20,9 km/h (4 Bft)
13.03.2016 22:00 1,1 C 79 % 1033,9 hPa 0,0 l/m 7,7 km/h (2 Bft) O-NO 57 0 min 0,025 mm 0,0 UV-I 0 W/m -2,1 C -0,2 C 14,5 km/h (3 Bft)
13.03.2016 22:05 1,1 C 79 % 1033,9 hPa 0,0 l/m 9,4 km/h (2 Bft) O 81 0 min 0,000 mm 0,0 UV-I 0 W/m -2,1 C -1,7 C 16,1 km/h (3 Bft)
13.03.2016 22:10 0,9 C 79 % 1033,9 hPa 0,0 l/m 8,8 km/h (2 Bft) O-NO 74 0 min 0,000 mm 0,0 UV-I 0 W/m -2,3 C -1,4 C 16,1 km/h (3 Bft)
13.03.2016 22:15 0,8 C 80 % 1033,9 hPa 0,0 l/m 7,2 km/h (2 Bft) NO 51 0 min 0,000 mm 0,0 UV-I 0 W/m -2,2 C -0,0 C 16,1 km/h (3 Bft)
13.03.2016 22:20 0,8 C 80 % 1033,8 hPa 0,0 l/m 6,7 km/h (2 Bft) NO 55 0 min 0,000 mm 0,0 UV-I 0 W/m -2,2 C 0,5 C 16,1 km/h (3 Bft)
13.03.2016 22:25 0,7 C 80 % 1033,9 hPa 0,0 l/m 3,2 km/h (1 Bft) NO 54 0 min 0,000 mm 0,0 UV-I 0 W/m -2,3 C 0,7 C 11,3 km/h (2 Bft)
13.03.2016 22:30 0,6 C 80 % 1034,0 hPa 0,0 l/m 7,0 km/h (2 Bft) O-NO 57 0 min 0,000 mm 0,0 UV-I 0 W/m -2,4 C -0,0 C 14,5 km/h (3 Bft)
13.03.2016 22:35 0,6 C 80 % 1034,0 hPa 0,0 l/m 7,2 km/h (2 Bft) O-NO 77 0 min 0,000 mm 0,0 UV-I 0 W/m -2,4 C -0,2 C 16,1 km/h (3 Bft)
13.03.2016 22:40 0,5 C 80 % 1034,0 hPa 0,0 l/m 6,3 km/h (2 Bft) O-NO 66 0 min 0,000 mm 0,0 UV-I 0 W/m -2,5 C 0,5 C 24,1 km/h (4 Bft)
13.03.2016 22:45 0,4 C 80 % 1034,0 hPa 0,0 l/m 10,0 km/h (2 Bft) NO 54 0 min 0,000 mm 0,0 UV-I 0 W/m -2,6 C -3,0 C 19,3 km/h (3 Bft)
13.03.2016 22:50 0,5 C 80 % 1034,0 hPa 0,0 l/m 9,3 km/h (2 Bft) NO 53 0 min 0,000 mm 0,0 UV-I 0 W/m -2,5 C -2,3 C 16,1 km/h (3 Bft)
13.03.2016 22:55 0,4 C 80 % 1034,0 hPa 0,0 l/m 4,9 km/h (1 Bft) O-NO 61 0 min 0,000 mm 0,0 UV-I 0 W/m -2,6 C 0,4 C 16,1 km/h (3 Bft)
13.03.2016 23:00 0,3 C 80 % 1034,0 hPa 0,0 l/m 9,4 km/h (2 Bft) O-NO 67 0 min 0,025 mm 0,0 UV-I 0 W/m -2,7 C -2,6 C 16,1 km/h (3 Bft)
13.03.2016 23:05 0,3 C 80 % 1033,9 hPa 0,0 l/m 6,1 km/h (2 Bft) O-NO 61 0 min 0,000 mm 0,0 UV-I 0 W/m -2,7 C 0,3 C 17,7 km/h (3 Bft)
13.03.2016 23:10 0,3 C 80 % 1033,9 hPa 0,0 l/m 8,6 km/h (2 Bft) O-NO 73 0 min 0,000 mm 0,0 UV-I 0 W/m -2,7 C -1,9 C 17,7 km/h (3 Bft)
13.03.2016 23:15 0,2 C 80 % 1033,9 hPa 0,0 l/m 5,5 km/h (1 Bft) O-NO 60 0 min 0,000 mm 0,0 UV-I 0 W/m -2,8 C 0,2 C 12,9 km/h (3 Bft)
13.03.2016 23:20 0,2 C 81 % 1033,9 hPa 0,0 l/m 3,2 km/h (1 Bft) O-NO 57 0 min 0,000 mm 0,0 UV-I 0 W/m -2,7 C 0,2 C 11,3 km/h (2 Bft)
13.03.2016 23:25 0,1 C 81 % 1033,9 hPa 0,0 l/m 5,7 km/h (1 Bft) O 85 0 min 0,000 mm 0,0 UV-I 0 W/m -2,8 C 0,1 C 17,7 km/h (3 Bft)
13.03.2016 23:30 0,2 C 81 % 1033,9 hPa 0,0 l/m 5,6 km/h (1 Bft) NO 35 0 min 0,000 mm 0,0 UV-I 0 W/m -2,7 C 0,2 C 16,1 km/h (3 Bft)
13.03.2016 23:35 0,1 C 81 % 1034,0 hPa 0,0 l/m 6,1 km/h (2 Bft) N-NO 24 0 min 0,000 mm 0,0 UV-I 0 W/m -2,8 C 0,1 C 17,7 km/h (3 Bft)
13.03.2016 23:40 0,1 C 81 % 1033,9 hPa 0,0 l/m 4,3 km/h (1 Bft) NO 51 0 min 0,000 mm 0,0 UV-I 0 W/m -2,8 C 0,1 C 14,5 km/h (3 Bft)
13.03.2016 23:45 0,1 C 82 % 1033,9 hPa 0,0 l/m 4,6 km/h (1 Bft) NO 46 0 min 0,000 mm 0,0 UV-I 0 W/m -2,6 C 0,1 C 12,9 km/h (3 Bft)
13.03.2016 23:50 0,2 C 82 % 1034,0 hPa 0,0 l/m 4,5 km/h (1 Bft) NO 42 0 min 0,000 mm 0,0 UV-I 0 W/m -2,5 C 0,2 C 16,1 km/h (3 Bft)
13.03.2016 23:55 0,2 C 82 % 1034,0 hPa 0,0 l/m 5,7 km/h (1 Bft) O-NO 65 0 min 0,000 mm 0,0 UV-I 0 W/m -2,5 C 0,2 C 16,1 km/h (3 Bft)
_ Min-Zeit 23:25 15:55 00:00 - 04:35 - - - - - - 23:15 22:45 04:35
Minimum _ 0,1 C 62 % 1031,1 hPa - 0,0 km/h (0 Bft) - - - - - - -2,8 C -3,0 C 0,0 km/h (0 Bft)
_ Max-Zeit 15:55 04:45 10:25 00:00 13:55 - - 12:40 14:00 12:40 15:45 15:50 15:50 14:00
Maximum _ 9,1 C 84 % 1034,1 hPa 0,0 l/m 16,4 km/h
O-NO (3 Bft)
- - 5 min 0,178 mm 2,6 UV-I 507 W/m 2,2 C 8,9 C 37,0 km/h
O-NO (5 Bft)
Durchschnitt _ 3,5 C 77 % 1032,9 hPa #0,0 l/m 6,1 km/h (2 Bft) O-NO - #3:05 h #1,295 mm 1,4 UV-I 185 W/m -0,1 C 2,5 C 16,9 km/h (3 Bft)